Location: Arcizac
(43.0933°N, 0.0112°E)
Time: 08:03:01
(UTC+00:00)

CZ-4 R/B - Pass Details

Date: 14 December 2019
Orbit: 532 x 598 km, 97.7° (Epoch: 20 January)

Event Time Altitude Azimuth Distance (km) Brightness Sun altitude
Rises 18:41:44 0° 180° (S) 2,696 5.0 -24.0°
Reaches altitude 10° 18:43:55 10° 187° (S) 1,800 4.1 -24.4°
Maximum altitude 18:47:39 45° 261° (W) 746 2.3 -25.0°
Drops below altitude 10° 18:51:22 10° 335° (NNW) 1,796 4.1 -25.7°
Sets 18:53:33 0° 341° (NNW) 2,689 5.0 -26.1°
